Wind_Speed
18 18 18 18 18 18 18 18 17 17 16 16 17 19 21 24 27 14 5 3 1 2 7 10 8 4 4 2 3 2 2 6 10 8 3 5 7 2 5 6 7 5 4 16 18
20 20 19 20 20 19 19 18 18 17 16 15 16 18 21 24 20 10 1 4 5 4 6 4 4 6 1 2 2 4 4 8 3 9 8 12 12 15 6 9 10 8 14 20 2
21 21 21 21 21 20 19 19 18 17 16 15 15 17 19 16 4 5 0 1 4 4 3 2 3 2 0 1 3 3 6 3 3 2 5 7 15 11 9 15 1 12 12 14 5
22 22 22 22 22 22 21 19 18 17 15 14 14 17 14 4 1 4 1 3 3 4 5 1 2 2 2 3 4 4 4 2 3 4 5 13 14 18 16 26 8 9 9 8 10
23 23 23 24 24 24 22 20 19 17 13 12 13 11 4 2 7 4 4 5 5 5 5 1 3 2 1 4 5 4 3 5 6 8 7 11 15 17 26 25 7 10 7 9 12
24 25 25 25 26 25 24 21 19 15 11 9 9 5 1 2 3 6 7 8 9 8 5 4 4 4 3 2 1 2 3 7 3 6 5 9 13 5 25 9 8 9 9 9 9
26 27 27 27 26 26 25 22 17 10 7 5 5 1 1 10 2 2 7 9 8 11 3 9 4 2 1 5 2 3 6 5 5 5 6 6 16 23 20 2 11 5 5 8 11
29 30 30 29 28 26 24 19 13 10 6 3 1 2 6 3 9 6 8 10 6 5 5 6 4 3 2 3 8 5 5 4 5 4 6 9 24 10 7 5 12 16 5 7 9
31 31 30 31 30 26 22 17 13 4 3 6 3 3 8 10 3 6 7 4 5 9 8 6 4 3 3 3 4 5 1 2 6 4 5 8 6 4 9 6 7 10 6 5 7
32 32 31 30 28 25 17 9 7 9 10 5 1 1 6 1 6 6 5 10 4 5 6 5 4 2 3 4 3 5 3 4 5 7 3 11 14 7 6 6 8 7 10 6 8
32 32 32 29 24 17 14 3 5 3 4 6 4 3 6 8 11 5 4 2 2 6 2 3 4 2 7 7 7 4 4 6 8 10 6 10 16 11 8 5 8 9 8 8 7
34 34 32 27 20 8 4 3 3 5 6 8 9 9 18 4 4 9 2 3 2 2 2 5 3 6 5 4 2 1 2 4 5 9 9 12 19 13 4 6 6 7 9 8 8
36 35 29 23 9 3 4 5 11 6 2 6 4 4 5 11 6 8 7 4 4 3 3 4 6 4 2 2 4 2 1 4 6 6 5 9 18 8 5 4 6 6 8 8 8
39 32 27 21 2 7 2 16 10 2 4 4 2 4 3 3 4 8 8 7 2 8 4 4 4 3 3 2 3 2 3 4 6 6 3 3 14 15 8 8 5 8 8 11 12
40 30 21 5 4 1 8 16 9 1 4 3 1 2 3 3 4 3 6 3 9 6 5 8 3 5 3 4 3 6 2 1 5 9 3 6 5 14 3 14 10 10 7 7 8
37 20 9 2 2 4 15 14 2 3 1 3 3 5 3 3 4 5 5 3 2 2 3 7 3 5 5 4 4 0 2 4 4 2 3 7 10 23 14 11 6 1 5 8 8
25 8 3 4 0 10 15 3 4 4 6 3 3 5 5 5 6 5 4 4 1 1 3 4 1 1 1 1 4 4 5 4 5 3 5 5 5 19 9 7 2 5 9 8 8
13 8 4 1 6 11 5 4 6 6 3 2 3 7 4 7 3 6 5 3 5 3 2 2 5 4 2 4 5 6 7 4 5 4 9 11 6 7 2 4 5 6 8 9 10
10 5 4 4 7 8 5 5 4 3 5 4 5 3 2 3 2 6 5 1 2 2 3 2 4 4 11 6 6 1 4 6 4 3 3 5 6 8 7 5 4 7 6 9 11
8 9 4 5 7 6 5 1 2 3 6 1 2 2 3 1 1 3 3 1 4 1 2 4 6 7 4 2 6 7 5 4 1 4 7 6 6 10 6 9 8 10 9 11 12
5 3 5 5 5 5 3 3 4 4 5 3 4 3 0 1 2 3 6 4 1 4 2 4 4 4 3 6 9 3 3 1 3 4 4 8 8 5 7 8 10 13 9 11 14
6 2 12 8 4 1 0 3 4 5 4 4 3 1 3 2 3 3 4 4 3 1 2 1 2 4 8 19 15 12 11 7 4 5 4 5 18 5 9 9 8 14 13 14 14
3 3 6 4 2 3 5 4 3 3 3 4 4 3 4 1 2 4 4 5 2 3 2 3 0 5 7 4 4 2 3 1 1 2 7 5 13 1 6 9 12 13 15 16 13
2 4 4 4 2 2 4 4 4 5 2 1 3 1 3 2 4 4 5 6 6 2 4 6 4 6 9 14 13 19 17 17 11 5 7 14 25 19 15 19 19 17 12 13 12
4 1 1 4 2 3 3 3 4 5 3 4 3 1 2 4 4 6 4 6 8 7 2 6 5 7 13 16 19 21 21 20 17 16 10 19 21 15 18 18 18 16 21 12 10
2 3 4 4 4 4 1 1 2 2 3 5 4 6 6 6 9 15 7 3 7 4 6 4 4 4 14 15 15 16 16 16 15 16 16 21 24 17 14 9 12 16 18 12 13
4 2 2 4 4 2 3 1 4 8 6 7 7 6 6 9 6 12 13 13 10 8 7 5 3 3 7 6 12 8 3 3 5 8 7 7 6 8 12 13 14 17 13 11 11
Wind_Direction
349 346 343 339 334 330 328 326 325 327 327 327 328 329 333 326 321 323 238 211 152 230 294 304 293 294 176 216 212 132 156 222 229 253 277 327 350 139 312 275 324 357 315 333 155
348 345 341 337 333 330 327 325 323 324 325 324 325 328 332 328 326 292 262 198 194 262 295 318 337 348 102 215 212 168 197 212 230 237 307 306 296 304 334 324 302 324 333 353 116
345 342 339 336 333 330 327 325 323 321 321 321 325 330 331 329 315 264 99 158 194 247 282 294 306 313 208 146 219 208 240 144 224 304 313 286 294 306 319 290 291 309 322 327 299
343 340 338 335 332 329 326 323 320 318 319 324 329 331 335 350 172 265 151 153 207 235 286 246 59 41 183 219 256 262 269 200 318 270 277 277 296 281 287 270 272 279 286 297 304
341 339 335 333 330 327 326 321 318 315 320 326 332 337 8 340 251 223 189 199 237 260 257 262 88 109 288 313 336 197 296 332 320 303 275 277 267 275 273 276 273 266 266 273 283
349 347 342 336 330 326 323 318 314 313 319 327 335 344 31 285 245 255 227 219 235 230 272 199 189 213 141 288 145 305 272 284 279 276 252 268 281 277 267 300 281 263 257 255 248
356 352 344 335 330 327 322 319 319 314 311 320 328 49 345 240 78 89 242 250 251 227 229 231 191 37 126 315 188 275 324 340 225 221 240 236 274 248 273 302 309 296 295 265 258
349 347 344 338 333 328 324 325 323 304 287 261 120 154 250 290 316 270 224 264 238 232 258 276 269 131 144 307 347 350 59 26 286 296 251 186 256 269 322 315 282 289 236 238 257
342 343 342 340 338 331 330 332 322 313 179 166 147 158 273 321 269 208 212 242 271 288 282 281 118 150 55 77 351 8 282 285 298 263 280 197 301 352 332 1 315 311 340 310 285
340 340 340 338 340 336 343 352 52 98 104 109 198 326 274 278 313 243 213 241 252 316 10 54 51 99 36 75 267 290 291 260 267 293 255 279 279 267 285 303 291 295 309 326 299
340 339 337 335 340 338 355 71 22 11 192 212 202 248 276 306 331 259 228 254 58 60 11 6 73 210 247 220 240 277 282 273 278 287 283 271 287 290 272 265 287 297 298 303 280
340 338 334 333 336 340 25 82 209 272 305 243 239 234 259 284 305 293 236 163 123 273 360 17 294 223 247 293 231 13 322 318 297 326 328 301 286 292 248 251 231 276 298 289 294
345 339 334 333 335 38 345 17 340 304 7 300 210 208 226 155 221 257 152 199 191 209 175 160 245 306 269 13 22 329 141 303 282 315 281 318 292 295 291 259 272 266 275 295 276
345 340 334 336 111 345 286 346 352 252 59 283 272 264 166 175 246 229 203 164 212 220 211 227 272 238 310 279 140 311 270 290 307 351 295 46 291 285 274 274 269 290 278 278 295
342 336 330 317 323 357 326 337 339 121 70 168 120 288 89 184 293 268 181 118 222 202 117 245 229 275 273 221 173 231 284 288 283 276 250 215 253 289 20 286 284 269 312 325 323
344 341 330 131 210 339 337 333 79 50 78 21 23 5 332 260 287 298 184 95 128 187 236 251 237 161 211 200 199 176 343 346 328 300 250 233 214 276 274 258 232 272 294 300 302
353 4 348 173 86 333 334 46 42 65 317 10 334 339 23 332 17 336 353 52 57 347 345 330 302 232 124 4 359 73 55 332 334 337 238 325 316 260 306 281 203 253 291 289 290
1 23 49 294 330 332 358 58 73 250 28 250 313 335 93 16 40 342 8 61 33 80 173 184 310 178 142 208 230 214 160 167 255 265 284 295 246 249 241 157 216 237 263 277 276
356 357 8 19 338 338 64 57 166 349 336 312 317 285 135 39 353 13 338 224 96 36 106 352 267 309 307 273 155 237 170 202 230 284 283 232 277 293 223 247 256 290 275 277 283
350 338 338 325 320 14 71 237 242 13 320 270 171 275 305 88 130 22 295 251 132 197 188 195 279 241 279 21 254 186 187 231 81 265 241 261 258 236 257 283 300 293 278 287 290
6 43 5 345 315 43 104 255 293 321 353 294 241 237 251 299 212 229 240 303 98 207 182 182 180 267 360 221 248 306 250 111 177 184 234 272 258 218 232 233 249 269 277 281 287
355 44 350 346 41 40 20 293 287 314 344 348 52 86 207 245 257 245 242 234 203 195 320 192 152 290 272 272 277 261 249 197 211 241 235 261 263 192 236 244 232 267 283 280 276
358 280 357 8 90 331 309 294 275 296 12 14 351 16 15 308 322 224 269 302 145 30 253 172 135 300 303 355 22 32 307 206 272 173 219 242 267 286 279 271 270 264 282 284 289
35 353 329 33 46 59 346 274 320 302 125 280 260 83 24 305 199 270 286 291 339 271 246 142 200 230 272 280 286 285 274 259 241 237 260 236 272 270 285 288 298 296 280 278 294
30 356 206 309 340 338 269 272 315 355 345 330 328 218 200 272 280 251 251 298 303 272 180 144 241 248 267 271 276 276 278 276 267 260 252 281 270 280 279 287 292 301 288 252 279
70 24 355 297 306 320 290 170 276 346 285 284 236 298 287 228 225 280 287 191 230 250 156 191 267 280 279 263 273 286 280 267 276 268 259 260 268 287 293 314 322 313 320 266 269
22 36 331 286 318 339 251 43 313 325 271 237 313 306 262 260 256 271 256 251 236 204 185 195 223 237 263 327 315 290 234 239 298 289 307 301 318 312 310 316 314 312 310 328 303
Height
813 810 807 804 801 798 795 793 790 787 784 782 779 777 775 770 765 761 757 753 753 754 755 754 753 752 752 753 750 749 772 775 765 758 750 738 745 730 726 730 725 723 720 712 705
812 808 805 802 799 796 793 790 788 785 783 780 778 776 773 768 763 758 751 751 752 754 756 754 752 750 753 752 751 756 773 766 752 746 751 742 737 737 736 735 727 723 715 714 715
810 807 803 800 797 793 790 787 785 783 781 779 776 774 771 767 766 753 750 752 753 754 756 754 753 753 754 751 754 756 759 750 748 746 748 745 736 735 739 732 729 730 721 714 712
808 805 801 797 794 790 787 785 782 780 778 776 775 772 770 769 769 751 751 753 754 754 756 753 753 756 759 760 752 759 750 748 748 746 749 747 739 735 734 718 725 722 720 716 713
806 802 798 794 791 787 784 781 778 776 775 774 773 771 770 771 762 751 752 753 753 754 753 753 755 759 763 761 757 757 753 751 752 751 749 744 741 739 721 712 723 719 719 719 714
804 799 795 791 787 783 780 777 775 773 773 772 771 771 772 771 752 751 753 753 753 753 752 752 752 752 758 759 761 755 756 756 751 750 747 745 736 734 704 715 718 719 717 714 714
803 798 793 788 784 779 775 772 771 770 770 770 770 770 772 762 752 752 752 751 750 750 751 750 749 751 753 757 754 753 758 756 749 745 742 736 736 723 711 715 716 718 715 714 710
802 797 791 786 780 775 771 769 768 767 768 768 769 770 767 751 751 750 750 749 748 748 749 748 749 751 754 753 755 759 764 772 751 745 735 737 727 717 716 719 715 707 713 711 709
800 794 788 783 777 772 767 765 763 763 764 767 769 770 764 750 750 748 749 748 747 747 746 746 748 755 758 770 777 774 777 770 762 743 742 740 733 722 719 720 719 713 713 712 709
798 791 785 779 774 769 765 763 763 763 766 768 769 772 755 753 750 747 747 747 747 746 747 749 759 764 774 777 786 775 774 769 764 748 742 743 734 728 723 721 720 719 712 711 707
794 788 782 777 772 768 764 764 767 769 766 762 760 760 755 751 748 746 745 745 747 752 761 758 770 774 767 768 762 765 767 769 760 748 749 744 734 729 724 722 722 717 714 711 710
792 785 779 774 770 766 765 766 767 768 767 754 753 755 751 754 757 747 745 751 753 763 758 768 772 760 756 756 760 760 764 767 759 750 748 744 732 724 724 721 718 715 711 710 704
789 782 775 770 768 767 767 767 765 764 770 755 749 749 747 750 754 747 744 747 754 760 761 770 760 753 755 759 761 763 765 765 766 753 746 744 725 727 719 715 713 711 708 705 703
785 778 773 767 769 767 766 766 764 763 780 759 751 745 744 744 750 738 738 746 752 759 760 761 752 752 755 759 760 766 756 757 759 765 771 748 748 726 722 720 713 711 709 704 699
780 775 770 769 769 768 768 764 762 763 784 752 749 742 743 749 745 739 735 742 752 753 757 760 753 757 760 755 753 761 752 758 759 764 764 757 767 709 715 717 716 708 704 703 701
775 771 768 768 768 767 765 762 763 778 780 756 749 750 751 746 745 739 738 737 741 750 753 755 746 750 751 748 750 749 756 762 765 767 777 751 752 710 715 710 706 703 704 701 699
772 769 767 768 768 766 764 763 782 789 757 765 761 753 758 757 754 749 747 750 759 763 762 755 751 748 747 754 754 760 775 790 787 777 767 746 752 722 711 705 704 705 702 699 695
772 770 769 768 768 766 764 775 787 772 765 755 756 753 764 759 758 756 757 764 760 759 771 773 772 751 749 752 758 762 769 790 785 770 758 743 747 723 702 703 702 701 699 696 693
773 772 770 770 768 767 773 789 786 774 766 761 757 762 762 762 762 762 764 760 759 759 768 773 767 749 747 745 751 757 767 757 766 768 778 749 729 713 703 698 698 698 694 692 687
775 774 771 770 769 768 783 783 776 767 764 759 768 762 768 768 768 769 767 754 760 757 758 765 774 752 745 743 743 748 748 756 776 767 756 736 730 717 704 700 696 693 691 687 682
778 778 773 771 770 778 795 785 773 764 763 762 763 764 766 768 767 770 765 756 753 756 757 762 772 758 751 750 746 751 755 756 764 764 759 736 721 705 701 699 697 689 685 685 678
785 785 774 772 784 797 789 777 769 766 762 763 760 761 765 765 768 767 767 756 752 754 759 761 774 777 751 734 733 738 742 746 763 754 759 741 706 686 693 693 694 686 681 676 672
797 794 776 773 806 798 788 777 770 769 768 768 767 767 768 767 772 765 760 752 752 754 757 761 773 764 748 740 734 737 739 739 748 750 741 741 698 688 695 692 686 686 675 670 666
799 800 790 787 794 792 793 784 776 767 768 768 768 766 769 769 766 768 765 757 754 755 751 758 766 763 761 750 746 745 739 740 745 733 728 716 698 691 690 685 679 676 672 667 659
805 811 811 807 800 802 799 786 778 778 771 769 769 768 771 776 772 769 761 760 755 750 755 759 762 755 746 745 740 736 732 725 726 720 720 701 699 695 687 683 676 670 660 659 650
812 816 813 811 805 801 792 785 785 779 780 776 774 771 774 779 770 762 765 766 764 753 761 759 760 752 744 734 729 723 715 711 708 703 705 700 693 687 681 680 676 671 663 652 647
810 812 811 811 808 802 797 792 790 791 777 773 775 775 772 765 762 758 755 752 751 753 763 761 754 750 736 728 732 723 705 704 705 700 702 703 696 693 689 686 681 671 663 656 653